Time,TemperatureF,DewpointF,PressureIn,WindDirection,WindDirectionDegrees,WindSpeedMPH,WindSpeedGustMPH,Humidity,HourlyPrecipIn,Conditions,Clouds,dailyrainin,SolarRadiationWatts/m^2,SoftwareType,DateUTC
2013-05-29 00:21:00,39.0,21.0,-100.00,North,357,3.0,5.0,49,0.00,,,0.00,0.000000,,2013-05-29 06:21:00,
2013-05-29 00:32:00,39.0,21.0,-100.00,North,357,3.0,5.0,49,0.00,,,0.00,0.000000,,2013-05-29 06:32:00,
2013-05-29 00:42:00,39.0,21.0,-100.00,North,357,3.0,5.0,49,0.00,,,0.00,0.000000,,2013-05-29 06:42:00,
2013-05-29 00:52:00,39.0,21.0,-100.00,North,357,3.0,5.0,49,0.00,,,0.00,0.000000,,2013-05-29 06:52:00,
2013-05-29 01:21:00,38.0,23.0,-100.00,East,84,4.0,7.0,55,0.00,,,0.00,0.000000,,2013-05-29 07:21:00,
2013-05-29 01:34:00,38.0,23.0,-100.00,East,84,4.0,7.0,55,0.00,,,0.00,0.000000,,2013-05-29 07:34:00,
2013-05-29 01:42:00,38.0,23.0,-100.00,East,84,4.0,7.0,55,0.00,,,0.00,0.000000,,2013-05-29 07:42:00,
2013-05-29 01:52:00,38.0,23.0,-100.00,East,84,4.0,7.0,55,0.00,,,0.00,0.000000,,2013-05-29 07:52:00,
2013-05-29 02:22:00,34.0,24.0,-100.00,East,97,2.0,6.0,66,0.00,,,0.00,0.000000,,2013-05-29 08:22:00,
2013-05-29 02:32:00,34.0,24.0,-100.00,East,97,2.0,6.0,66,0.00,,,0.00,0.000000,,2013-05-29 08:32:00,
2013-05-29 02:42:00,34.0,24.0,-100.00,East,97,2.0,6.0,66,0.00,,,0.00,0.000000,,2013-05-29 08:42:00,
2013-05-29 02:52:00,34.0,24.0,-100.00,East,97,2.0,6.0,66,0.00,,,0.00,0.000000,,2013-05-29 08:52:00,
2013-05-29 03:21:00,32.0,24.0,-100.00,NNW,347,2.0,5.0,72,0.00,,,0.00,0.000000,,2013-05-29 09:21:00,
2013-05-29 03:33:00,32.0,24.0,-100.00,NNW,347,2.0,5.0,72,0.00,,,0.00,0.000000,,2013-05-29 09:33:00,
2013-05-29 03:42:00,32.0,24.0,-100.00,NNW,347,2.0,5.0,72,0.00,,,0.00,0.000000,,2013-05-29 09:42:00,
2013-05-29 03:52:00,32.0,24.0,-100.00,NNW,347,2.0,5.0,72,0.00,,,0.00,0.000000,,2013-05-29 09:52:00,
2013-05-29 04:22:00,31.0,23.0,-100.00,ESE,110,2.0,5.0,73,0.00,,,0.00,0.000000,,2013-05-29 10:22:00,
2013-05-29 04:32:00,31.0,23.0,-100.00,ESE,110,2.0,5.0,73,0.00,,,0.00,0.000000,,2013-05-29 10:32:00,
2013-05-29 04:42:00,31.0,23.0,-100.00,ESE,110,2.0,5.0,73,0.00,,,0.00,0.000000,,2013-05-29 10:42:00,
2013-05-29 04:52:00,31.0,23.0,-100.00,ESE,110,2.0,5.0,73,0.00,,,0.00,0.000000,,2013-05-29 10:52:00,
2013-05-29 05:22:00,32.0,24.0,-100.00,SSE,154,3.0,5.0,73,0.00,,,0.00,0.000000,,2013-05-29 11:22:00,
2013-05-29 05:32:00,32.0,24.0,-100.00,SSE,154,3.0,5.0,73,0.00,,,0.00,0.000000,,2013-05-29 11:32:00,
2013-05-29 05:42:00,32.0,24.0,-100.00,SSE,154,3.0,5.0,73,0.00,,,0.00,0.000000,,2013-05-29 11:42:00,
2013-05-29 05:52:00,32.0,24.0,-100.00,SSE,154,3.0,5.0,73,0.00,,,0.00,0.000000,,2013-05-29 11:52:00,
2013-05-29 06:22:00,33.0,30.0,-100.00,WNW,300,3.0,9.0,88,0.00,,,0.00,0.000000,,2013-05-29 12:22:00,
2013-05-29 06:32:00,33.0,30.0,-100.00,WNW,300,3.0,9.0,88,0.00,,,0.00,0.000000,,2013-05-29 12:32:00,
2013-05-29 06:42:00,33.0,30.0,-100.00,WNW,300,3.0,9.0,88,0.00,,,0.00,0.000000,,2013-05-29 12:42:00,
2013-05-29 06:52:00,33.0,30.0,-100.00,WNW,300,3.0,9.0,88,0.00,,,0.00,0.000000,,2013-05-29 12:52:00,
2013-05-29 07:21:00,33.0,31.0,-100.00,ESE,120,3.0,7.0,92,0.00,,,0.00,4.000000,,2013-05-29 13:21:00,
2013-05-29 07:32:00,33.0,31.0,-100.00,ESE,120,3.0,7.0,92,0.00,,,0.00,4.000000,,2013-05-29 13:32:00,
2013-05-29 07:42:00,33.0,31.0,-100.00,ESE,120,3.0,7.0,92,0.00,,,0.00,4.000000,,2013-05-29 13:42:00,
2013-05-29 07:52:00,33.0,31.0,-100.00,ESE,120,3.0,7.0,92,0.00,,,0.00,4.000000,,2013-05-29 13:52:00,
2013-05-29 08:21:00,36.0,33.0,-100.00,West,265,0.0,9.0,87,0.00,,,0.00,17.000000,,2013-05-29 14:21:00,
2013-05-29 08:32:00,36.0,33.0,-100.00,West,265,0.0,9.0,87,0.00,,,0.00,17.000000,,2013-05-29 14:32:00,
2013-05-29 08:42:00,36.0,33.0,-100.00,West,265,0.0,9.0,87,0.00,,,0.00,17.000000,,2013-05-29 14:42:00,
2013-05-29 08:52:00,36.0,33.0,-100.00,West,265,0.0,9.0,87,0.00,,,0.00,17.000000,,2013-05-29 14:52:00,
2013-05-29 09:21:00,41.0,33.0,-100.00,ENE,68,2.0,4.0,73,0.09,,,0.09,244.000000,,2013-05-29 15:21:00,
2013-05-29 09:33:00,41.0,33.0,-100.00,ENE,68,2.0,4.0,73,0.09,,,0.09,244.000000,,2013-05-29 15:33:00,
2013-05-29 09:42:00,41.0,33.0,-100.00,ENE,68,2.0,4.0,73,0.09,,,0.09,244.000000,,2013-05-29 15:42:00,
2013-05-29 09:53:00,41.0,33.0,-100.00,ENE,68,2.0,4.0,73,0.09,,,0.09,244.000000,,2013-05-29 15:53:00,
2013-05-29 10:22:00,34.0,28.0,-100.00,SW,226,7.0,17.0,80,0.01,,,0.10,235.000000,,2013-05-29 16:22:00,
2013-05-29 10:32:00,34.0,28.0,-100.00,SW,226,7.0,17.0,80,0.01,,,0.10,235.000000,,2013-05-29 16:32:00,
2013-05-29 10:42:00,34.0,28.0,-100.00,SW,226,7.0,17.0,80,0.01,,,0.10,235.000000,,2013-05-29 16:42:00,
2013-05-29 10:52:00,34.0,28.0,-100.00,SW,226,7.0,17.0,80,0.01,,,0.10,235.000000,,2013-05-29 16:52:00,
2013-05-29 11:22:00,35.0,31.0,-100.00,NW,313,6.0,10.0,84,0.01,,,0.11,176.000000,,2013-05-29 17:22:00,
2013-05-29 11:32:00,35.0,31.0,-100.00,NW,313,6.0,10.0,84,0.01,,,0.11,176.000000,,2013-05-29 17:32:00,
2013-05-29 11:42:00,35.0,31.0,-100.00,NW,313,6.0,10.0,84,0.01,,,0.11,176.000000,,2013-05-29 17:42:00,
2013-05-29 11:52:00,35.0,31.0,-100.00,NW,313,6.0,10.0,84,0.01,,,0.11,176.000000,,2013-05-29 17:52:00,
2013-05-29 12:22:00,45.0,34.0,-100.00,WSW,246,6.0,11.0,65,0.00,,,0.11,660.000000,,2013-05-29 18:22:00,
2013-05-29 12:32:00,45.0,34.0,-100.00,WSW,246,6.0,11.0,65,0.00,,,0.11,660.000000,,2013-05-29 18:32:00,
2013-05-29 12:42:00,45.0,34.0,-100.00,WSW,246,6.0,11.0,65,0.00,,,0.11,660.000000,,2013-05-29 18:42:00,
2013-05-29 12:51:00,45.0,34.0,-100.00,WSW,246,6.0,11.0,65,0.00,,,0.11,660.000000,,2013-05-29 18:51:00,
2013-05-29 13:21:00,45.0,27.0,-100.00,WNW,298,8.0,20.0,48,0.01,,,0.12,558.000000,,2013-05-29 19:21:00,
2013-05-29 13:32:00,45.0,27.0,-100.00,WNW,298,8.0,20.0,48,0.01,,,0.12,558.000000,,2013-05-29 19:32:00,
2013-05-29 13:44:00,45.0,27.0,-100.00,WNW,298,8.0,20.0,48,0.01,,,0.12,558.000000,,2013-05-29 19:44:00,
2013-05-29 13:52:00,45.0,27.0,-100.00,WNW,298,8.0,20.0,48,0.01,,,0.12,558.000000,,2013-05-29 19:52:00,
2013-05-29 14:22:00,42.0,26.0,-100.00,WNW,293,8.0,13.0,53,0.00,,,0.12,242.000000,,2013-05-29 20:22:00,
2013-05-29 14:33:00,42.0,26.0,-100.00,WNW,293,8.0,13.0,53,0.00,,,0.12,242.000000,,2013-05-29 20:33:00,
2013-05-29 14:42:00,42.0,26.0,-100.00,WNW,293,8.0,13.0,53,0.00,,,0.12,242.000000,,2013-05-29 20:42:00,
2013-05-29 14:52:00,42.0,26.0,-100.00,WNW,293,8.0,13.0,53,0.00,,,0.12,242.000000,,2013-05-29 20:52:00,
2013-05-29 15:22:00,36.0,29.0,-100.00,WNW,300,10.0,22.0,77,0.02,,,0.14,195.000000,,2013-05-29 21:22:00,
2013-05-29 15:33:00,36.0,29.0,-100.00,WNW,300,10.0,22.0,77,0.02,,,0.14,195.000000,,2013-05-29 21:33:00,
2013-05-29 15:43:00,36.0,29.0,-100.00,WNW,300,10.0,22.0,77,0.02,,,0.14,195.000000,,2013-05-29 21:43:00,
2013-05-29 15:53:00,36.0,29.0,-100.00,WNW,300,10.0,22.0,77,0.02,,,0.14,195.000000,,2013-05-29 21:53:00,
2013-05-29 16:23:00,39.0,31.0,-100.00,South,171,2.0,19.0,73,0.01,,,0.15,358.000000,,2013-05-29 22:23:00,
2013-05-29 16:33:00,39.0,31.0,-100.00,South,171,2.0,19.0,73,0.01,,,0.15,358.000000,,2013-05-29 22:33:00,
2013-05-29 16:42:00,39.0,31.0,-100.00,South,171,2.0,19.0,73,0.01,,,0.15,358.000000,,2013-05-29 22:42:00,
2013-05-29 16:53:00,39.0,31.0,-100.00,South,171,2.0,19.0,73,0.01,,,0.15,358.000000,,2013-05-29 22:53:00,
2013-05-29 17:22:00,34.0,31.0,-100.00,NW,316,8.0,25.0,87,0.01,,,0.16,151.000000,,2013-05-29 23:22:00,
2013-05-29 17:33:00,34.0,31.0,-100.00,NW,316,8.0,25.0,87,0.01,,,0.16,151.000000,,2013-05-29 23:33:00,
2013-05-29 17:42:00,34.0,31.0,-100.00,NW,316,8.0,25.0,87,0.01,,,0.16,151.000000,,2013-05-29 23:42:00,
2013-05-29 17:52:00,34.0,31.0,-100.00,NW,316,8.0,25.0,87,0.01,,,0.16,151.000000,,2013-05-29 23:52:00,
2013-05-29 18:21:00,40.0,33.0,-100.00,NW,322,6.0,16.0,76,0.01,,,0.17,380.000000,,2013-05-30 00:21:00,
2013-05-29 18:32:00,40.0,33.0,-100.00,NW,322,6.0,16.0,76,0.01,,,0.17,380.000000,,2013-05-30 00:32:00,
2013-05-29 18:42:00,40.0,33.0,-100.00,NW,322,6.0,16.0,76,0.01,,,0.17,380.000000,,2013-05-30 00:42:00,
2013-05-29 18:52:00,40.0,33.0,-100.00,NW,322,6.0,16.0,76,0.01,,,0.17,380.000000,,2013-05-30 00:52:00,
2013-05-29 19:21:00,38.0,30.0,-100.00,NW,322,6.0,11.0,74,0.00,,,0.17,144.000000,,2013-05-30 01:21:00,
2013-05-29 19:32:00,38.0,30.0,-100.00,NW,322,6.0,11.0,74,0.00,,,0.17,144.000000,,2013-05-30 01:32:00,
2013-05-29 19:42:00,38.0,30.0,-100.00,NW,322,6.0,11.0,74,0.00,,,0.17,144.000000,,2013-05-30 01:42:00,
2013-05-29 19:52:00,38.0,30.0,-100.00,NW,322,6.0,11.0,74,0.00,,,0.17,144.000000,,2013-05-30 01:52:00,
2013-05-29 20:21:00,32.0,30.0,-100.00,West,281,8.0,19.0,93,0.00,,,0.17,34.000000,,2013-05-30 02:21:00,
2013-05-29 20:32:00,32.0,30.0,-100.00,West,281,8.0,19.0,93,0.00,,,0.17,34.000000,,2013-05-30 02:32:00,
2013-05-29 20:42:00,32.0,30.0,-100.00,West,281,8.0,19.0,93,0.00,,,0.17,34.000000,,2013-05-30 02:42:00,
2013-05-29 20:52:00,32.0,30.0,-100.00,West,281,8.0,19.0,93,0.00,,,0.17,34.000000,,2013-05-30 02:52:00,
2013-05-29 21:21:00,32.0,31.0,-100.00,NW,317,4.0,8.0,95,0.00,,,0.17,2.000000,,2013-05-30 03:21:00,
2013-05-29 21:33:00,32.0,31.0,-100.00,NW,317,4.0,8.0,95,0.00,,,0.17,2.000000,,2013-05-30 03:33:00,
2013-05-29 21:43:00,32.0,31.0,-100.00,NW,317,4.0,8.0,95,0.00,,,0.17,2.000000,,2013-05-30 03:43:00,
2013-05-29 21:53:00,32.0,31.0,-100.00,NW,317,4.0,8.0,95,0.00,,,0.17,2.000000,,2013-05-30 03:53:00,
2013-05-29 22:23:00,32.0,30.0,-100.00,NW,307,6.0,11.0,93,0.00,,,0.17,0.000000,,2013-05-30 04:23:00,
2013-05-29 22:33:00,32.0,30.0,-100.00,NW,307,6.0,11.0,93,0.00,,,0.17,0.000000,,2013-05-30 04:33:00,
2013-05-29 22:42:00,32.0,30.0,-100.00,NW,307,6.0,11.0,93,0.00,,,0.17,0.000000,,2013-05-30 04:42:00,
2013-05-29 22:53:00,32.0,30.0,-100.00,NW,307,6.0,11.0,93,0.00,,,0.17,0.000000,,2013-05-30 04:53:00,
2013-05-29 23:22:00,32.0,31.0,-100.00,ENE,71,4.0,13.0,95,0.00,,,0.17,0.000000,,2013-05-30 05:22:00,
2013-05-29 23:32:00,32.0,31.0,-100.00,ENE,71,4.0,13.0,95,0.00,,,0.17,0.000000,,2013-05-30 05:32:00,
2013-05-29 23:42:00,32.0,31.0,-100.00,ENE,71,4.0,13.0,95,0.00,,,0.17,0.000000,,2013-05-30 05:42:00,
2013-05-29 23:52:00,32.0,31.0,-100.00,ENE,71,4.0,13.0,95,0.00,,,0.17,0.000000,,2013-05-30 05:52:00,